Location: Bosmont
(49.7318°N, 3.8587°E)
Time: 07:16:53
(UTC+00:00)

SL-16 R/B - Pass Details

Date: 08 February 2023
Orbit: 842 x 846 km, 71.0° (Epoch: 23 March)

Event Time Altitude Azimuth Distance (km) Brightness Sun altitude
Rises 17:18:25 0° 213° (SSW) 3,389 6.2 -5.0°
Reaches altitude 10° 17:20:52 10° 216° (SW) 2,458 5.5 -5.4°
Maximum altitude 17:26:30 73° 301° (WNW) 885 2.5 -6.2°
Drops below altitude 10° 17:32:12 10° 26° (NNE) 2,477 4.3 -7.1°
Sets 17:34:40 0° 29° (NNE) 3,416 4.9 -7.5°
